User: anonymous   Login
Location: Unspecified
(0.0000°N, 0.0000°E)
Time: 00:57:15
(UTC+00:00)
Language:

ONEWEB-0581 - Orbit

View from above orbital plane
View from above orbital plane
View from above satellite
View from above satellite

Ground track
Ground track

The orbit is defined by the following mean orbital elements,

1 56069U          26145.50317137 +.00000000 +00000-0 -72766-4 0 00007
2 56069  87.9107 233.2876 0002534  92.3424 267.7998 13.16595159    02
Epoch (UTC): 25 May 2026 12:04:34
Eccentricity: 0.0002534
inclination: 87.9107°
perigee height: 1196 km
apogee height: 1200 km
right ascension of ascending node: 233.2876°
argument of perigee: 92.3424°
revolutions per day: 13.16595159
mean anomaly at epoch: 267.7998°

The dashed part of the orbit path shows where the satellite is in the earth's shadow,  

DLR